Temp
77 77 78 79 79 78 77 75 75 77 77 78 78 79 79 79 80 80 80 80 80 79 79 79 79 79 80 79 79 79 78 78 79 78 77 77 76 76 78 76 75 74
77 77 78 79 78 78 76 77 75 77 77 78 79 79 79 79 79 80 80 80 80 80 79 79 79 79 78 79 79 79 78 78 78 80 78 77 77 76 78 77 77 76
78 77 78 78 79 79 79 77 76 76 77 78 78 79 79 80 79 79 80 80 80 80 79 79 79 79 78 78 78 79 79 77 77 79 78 78 77 77 77 78 76 77
78 78 79 79 80 80 80 78 76 76 77 76 77 79 80 81 80 79 79 81 80 80 80 79 79 79 79 79 78 78 78 78 78 78 78 78 78 78 78 77 77 76
79 79 79 80 80 80 79 79 79 78 78 78 78 78 79 79 78 79 79 80 80 80 80 80 79 79 79 78 78 78 78 77 77 77 77 77 77 78 79 77 76 76
79 79 79 80 80 79 79 79 80 80 80 79 79 79 79 79 79 79 79 80 80 81 81 81 80 80 79 78 78 78 78 78 78 77 76 77 77 78 80 78 76 75
79 79 79 80 80 80 80 79 80 80 80 81 80 79 80 80 80 80 79 80 80 80 81 80 80 79 79 79 78 77 77 77 77 77 77 76 76 77 78 78 77 76
80 80 80 80 80 80 80 80 80 80 81 81 80 80 80 81 81 81 80 80 80 80 80 81 80 79 80 79 78 77 77 79 78 77 77 76 76 76 76 78 77 76
81 80 80 80 80 81 81 81 81 81 81 81 81 81 80 81 81 82 81 80 80 80 80 80 80 80 80 80 79 78 78 78 78 78 77 77 76 76 76 77 76 76
80 80 81 80 80 81 81 82 82 82 81 81 82 82 81 81 81 81 81 80 80 80 79 80 80 80 80 80 79 79 78 78 78 78 78 78 78 77 77 77 77 76
81 81 81 80 81 82 82 82 83 83 82 82 82 82 82 82 81 81 80 80 80 80 79 79 80 80 80 80 80 80 79 79 79 78 78 78 78 78 79 78 77 77
81 81 81 81 81 82 82 83 83 83 83 83 83 83 83 83 82 81 81 80 81 81 80 80 80 80 80 80 80 80 80 80 79 78 78 78 78 78 78 78 78 78
81 81 82 82 82 82 83 83 83 84 84 84 84 84 83 83 83 82 82 81 81 81 81 80 80 80 80 80 80 80 80 79 79 79 78 78 77 78 79 79 79 79
82 82 82 82 82 82 82 83 84 84 84 84 84 84 84 84 84 83 83 82 82 82 82 82 81 80 80 80 80 80 80 79 79 79 79 78 78 78 78 79 79 79
82 82 82 82 82 82 82 82 83 83 83 84 83 84 85 85 85 84 83 82 82 82 82 82 81 81 81 80 79 79 80 79 79 79 79 78 78 78 78 78 79 80
81 82 82 82 81 81 81 82 83 83 84 83 83 84 84 84 84 84 84 83 82 81 82 81 81 82 79 75 76 81 80 81 80 79 79 79 78 78 78 79 80 81
81 81 81 81 81 81 81 81 82 83 83 82 83 83 83 83 84 84 84 84 83 82 81 81 82 82 75 70 70 73 80 80 79 79 79 79 78 78 77 78 79 80
81 81 81 81 81 80 81 81 82 82 82 82 82 83 82 84 83 83 83 84 84 83 82 82 82 77 70 68 69 69 74 81 80 79 79 78 79 78 78 79 79 79
81 81 81 81 80 81 81 81 81 81 82 82 82 83 83 82 82 83 83 83 84 82 82 83 82 75 68 67 67 68 68 76 81 80 79 79 79 79 79 78 78 78
82 81 81 81 81 81 81 81 80 81 82 84 84 83 82 82 83 83 83 82 83 82 82 83 82 76 67 66 65 66 67 71 82 81 80 80 79 79 79 78 78 78
82 81 81 81 81 81 80 80 80 81 82 83 84 83 82 82 82 82 83 82 83 83 83 83 85 73 66 64 63 63 65 68 80 81 80 80 79 79 79 79 78 78
82 81 81 81 81 81 80 80 80 80 81 82 83 84 84 83 83 84 83 82 83 84 83 82 85 70 65 64 63 62 64 72 77 80 80 80 79 78 79 79 79 79
83 82 81 81 81 81 80 81 80 80 81 83 82 84 84 83 83 84 83 83 83 83 83 83 84 73 64 63 62 61 64 74 76 79 79 80 80 79 79 79 79 79
83 83 82 81 81 81 81 81 82 82 83 83 83 83 84 84 84 84 84 84 84 83 84 83 84 76 62 62 61 60 67 75 77 77 78 79 79 79 78 78 79 83
84 83 83 82 82 82 83 82 82 82 83 83 84 84 84 85 84 84 84 84 85 85 82 83 84 78 61 61 60 59 66 77 78 77 77 78 78 79 78 78 78 81
85 84 83 83 83 83 83 83 83 83 83 83 84 84 84 85 84 84 84 84 85 84 85 84 84 84 71 59 59 58 61 77 78 77 77 77 78 78 78 78 78 78
MSLP
1015.98 1016.10 1016.22 1016.38 1016.50 1016.54 1016.82 1017.26 1017.46 1017.62 1017.74 1017.82 1018.06 1018.06 1018.14 1018.02 1018.06 1018.22 1018.34 1018.50 1018.66 1018.82 1018.86 1018.94 1018.98 1019.10 1019.10 1019.14 1019.22 1019.46 1019.62 1019.66 1019.66 1019.70 1019.78 1019.86 1019.94 1020.02 1020.18 1020.18 1020.22 1020.22
1015.78 1015.86 1015.94 1016.06 1016.30 1016.38 1016.58 1016.70 1017.06 1017.22 1017.42 1017.50 1017.46 1017.54 1017.62 1017.78 1017.86 1017.98 1018.22 1018.42 1018.50 1018.62 1018.66 1018.74 1018.82 1018.90 1019.02 1019.06 1019.14 1019.42 1019.62 1019.66 1019.82 1019.54 1019.82 1019.86 1019.86 1019.90 1020.02 1019.98 1020.06 1019.98
1015.50 1015.78 1015.90 1016.10 1016.18 1016.26 1016.38 1016.54 1016.74 1016.94 1017.06 1017.14 1017.18 1017.34 1017.54 1017.50 1017.74 1017.78 1017.94 1018.14 1018.38 1018.46 1018.54 1018.58 1018.70 1018.66 1018.78 1018.86 1018.98 1019.22 1019.46 1019.62 1019.78 1019.58 1019.70 1019.82 1019.78 1019.94 1019.86 1019.82 1019.94 1019.94
1015.18 1015.30 1015.50 1015.58 1015.70 1015.90 1016.06 1016.42 1016.66 1016.82 1016.90 1017.22 1017.30 1017.14 1017.22 1017.34 1017.54 1017.74 1017.86 1017.94 1018.18 1018.30 1018.34 1018.42 1018.54 1018.54 1018.66 1018.74 1018.90 1019.14 1019.22 1019.38 1019.38 1019.42 1019.70 1019.70 1019.66 1019.70 1019.74 1019.70 1019.74 1019.74
1014.78 1015.02 1015.14 1015.30 1015.38 1015.58 1015.82 1016.18 1016.42 1016.58 1016.74 1016.74 1016.86 1016.98 1017.18 1017.34 1017.58 1017.70 1017.82 1017.90 1017.98 1018.14 1018.22 1018.34 1018.38 1018.50 1018.54 1018.66 1018.78 1019.06 1019.14 1019.30 1019.30 1019.38 1019.66 1019.86 1019.66 1019.62 1019.54 1019.62 1019.78 1019.86
1014.50 1014.62 1014.78 1015.02 1015.18 1015.50 1015.82 1015.94 1015.98 1016.18 1016.34 1016.62 1016.66 1016.70 1016.82 1016.94 1017.22 1017.42 1017.54 1017.74 1017.82 1017.94 1018.06 1018.14 1018.30 1018.34 1018.42 1018.58 1018.74 1018.90 1019.02 1019.26 1019.22 1019.34 1019.62 1019.78 1019.74 1019.54 1019.46 1019.54 1019.74 1019.86
1014.38 1014.62 1014.82 1014.90 1015.10 1015.18 1015.42 1015.50 1015.66 1015.78 1015.98 1015.98 1016.22 1016.54 1016.50 1016.78 1016.94 1017.06 1017.18 1017.30 1017.50 1017.70 1017.86 1017.98 1018.14 1018.26 1018.26 1018.42 1018.66 1018.90 1018.94 1019.06 1019.10 1019.26 1019.54 1019.66 1019.66 1019.70 1019.50 1019.46 1019.58 1019.74
1013.98 1014.14 1014.42 1014.66 1014.94 1015.02 1015.18 1015.22 1015.38 1015.50 1015.54 1015.82 1016.14 1016.14 1016.26 1016.46 1016.58 1016.66 1016.82 1017.02 1017.30 1017.46 1017.58 1017.70 1017.82 1017.98 1018.10 1018.26 1018.62 1018.86 1018.98 1018.98 1019.14 1019.26 1019.42 1019.50 1019.58 1019.74 1019.62 1019.46 1019.50 1019.70
1013.58 1013.90 1014.18 1014.50 1014.78 1014.82 1014.94 1014.94 1015.02 1015.10 1015.22 1015.58 1015.78 1015.90 1015.98 1016.10 1016.22 1016.38 1016.58 1016.78 1017.02 1017.14 1017.34 1017.50 1017.62 1017.78 1017.86 1018.10 1018.34 1018.62 1018.86 1018.94 1018.90 1019.06 1019.26 1019.42 1019.54 1019.54 1019.50 1019.42 1019.58 1019.66
1013.34 1013.54 1013.94 1014.22 1014.50 1014.46 1014.58 1014.58 1014.62 1014.82 1014.90 1015.22 1015.34 1015.50 1015.78 1015.78 1015.86 1016.06 1016.30 1016.58 1016.82 1016.98 1017.14 1017.30 1017.50 1017.62 1017.74 1017.86 1018.06 1018.26 1018.54 1018.74 1018.74 1018.86 1018.94 1019.02 1019.14 1019.26 1019.30 1019.38 1019.46 1019.62
1012.90 1013.22 1013.62 1013.86 1014.06 1014.14 1014.26 1014.26 1014.34 1014.46 1014.62 1014.86 1015.06 1015.30 1015.30 1015.54 1015.70 1015.78 1016.10 1016.34 1016.62 1016.74 1016.94 1017.10 1017.22 1017.34 1017.58 1017.66 1017.74 1017.86 1018.14 1018.34 1018.50 1018.62 1018.74 1018.78 1018.82 1018.90 1018.94 1019.06 1019.22 1019.34
1012.46 1012.78 1013.10 1013.30 1013.54 1013.74 1013.90 1014.02 1014.10 1014.22 1014.34 1014.50 1014.62 1014.94 1015.02 1015.14 1015.38 1015.58 1015.78 1016.06 1016.14 1016.26 1016.46 1016.66 1016.74 1016.94 1017.18 1017.34 1017.46 1017.62 1017.86 1018.06 1018.22 1018.38 1018.50 1018.58 1018.62 1018.66 1018.70 1018.70 1018.90 1018.94
1012.02 1012.22 1012.46 1012.82 1013.10 1013.26 1013.46 1013.70 1013.90 1013.94 1014.06 1014.22 1014.22 1014.50 1014.74 1014.98 1015.02 1015.26 1015.34 1015.58 1015.78 1015.90 1016.10 1016.26 1016.46 1016.66 1016.86 1017.06 1017.22 1017.42 1017.66 1017.90 1018.10 1018.22 1018.30 1018.42 1018.42 1018.42 1018.38 1018.42 1018.50 1018.54
1011.42 1011.62 1011.98 1012.26 1012.50 1012.78 1013.06 1013.22 1013.46 1013.62 1013.78 1013.82 1013.94 1014.26 1014.42 1014.54 1014.74 1014.94 1015.02 1015.18 1015.34 1015.54 1015.62 1015.78 1016.10 1016.38 1016.58 1016.74 1016.98 1017.18 1017.42 1017.70 1017.82 1018.02 1018.18 1018.26 1018.22 1018.22 1018.18 1018.22 1018.18 1018.18
1010.94 1011.22 1011.46 1011.82 1012.10 1012.42 1012.70 1012.90 1013.06 1013.22 1013.38 1013.58 1013.74 1013.90 1013.94 1014.02 1014.18 1014.42 1014.78 1015.02 1015.06 1015.18 1015.38 1015.50 1015.78 1016.02 1016.14 1016.42 1016.78 1017.02 1017.10 1017.42 1017.58 1017.74 1017.90 1018.06 1018.10 1018.06 1018.02 1017.98 1017.94 1017.90
1010.42 1010.78 1011.10 1011.38 1011.78 1012.06 1012.26 1012.46 1012.66 1012.86 1013.06 1013.30 1013.42 1013.50 1013.62 1013.70 1013.90 1014.10 1014.34 1014.62 1014.90 1015.02 1015.10 1015.30 1015.46 1015.50 1015.62 1015.82 1016.06 1016.42 1016.74 1016.90 1017.18 1017.38 1017.58 1017.74 1017.94 1018.02 1017.94 1017.82 1017.70 1017.62
1009.94 1010.30 1010.58 1011.02 1011.22 1011.54 1011.78 1012.10 1012.34 1012.54 1012.78 1012.98 1013.14 1013.26 1013.38 1013.50 1013.66 1013.94 1014.06 1014.18 1014.42 1014.70 1014.98 1015.02 1015.06 1015.06 1015.18 1015.46 1015.70 1015.86 1016.18 1016.58 1016.90 1017.14 1017.18 1017.38 1017.58 1017.74 1017.86 1017.70 1017.50 1017.34
1009.30 1009.66 1010.06 1010.42 1010.74 1011.06 1011.34 1011.58 1011.90 1012.22 1012.50 1012.70 1012.90 1013.06 1013.14 1013.22 1013.50 1013.58 1013.66 1013.78 1013.98 1014.22 1014.50 1014.58 1014.66 1014.58 1014.82 1015.10 1015.34 1015.54 1015.74 1016.02 1016.34 1016.70 1016.90 1017.10 1017.22 1017.30 1017.30 1017.34 1017.34 1017.26
1008.62 1009.10 1009.46 1009.86 1010.14 1010.46 1010.78 1011.18 1011.54 1011.90 1012.18 1012.42 1012.58 1012.54 1012.78 1013.10 1013.14 1013.26 1013.42 1013.42 1013.62 1013.94 1014.10 1014.10 1014.22 1014.18 1014.50 1014.74 1015.02 1015.26 1015.50 1015.70 1015.94 1016.18 1016.54 1016.74 1016.78 1016.86 1016.94 1016.98 1017.02 1017.14
1007.98 1008.38 1008.86 1009.18 1009.50 1009.90 1010.26 1010.70 1011.10 1011.42 1011.58 1011.78 1012.02 1012.26 1012.54 1012.70 1012.82 1012.98 1013.02 1013.18 1013.26 1013.42 1013.58 1013.66 1013.78 1013.74 1014.06 1014.34 1014.62 1014.90 1015.18 1015.54 1015.58 1015.82 1016.02 1016.18 1016.30 1016.42 1016.50 1016.62 1016.70 1016.86
1007.46 1007.78 1008.22 1008.62 1008.98 1009.34 1009.78 1010.14 1010.50 1010.90 1011.22 1011.38 1011.62 1011.90 1012.18 1012.42 1012.54 1012.70 1012.70 1012.74 1012.82 1012.90 1013.18 1013.34 1013.22 1013.22 1013.62 1013.90 1014.26 1014.58 1014.86 1015.30 1015.34 1015.46 1015.70 1015.86 1015.90 1015.98 1016.06 1016.14 1016.26 1016.34
1006.98 1007.42 1007.74 1008.10 1008.50 1008.86 1009.30 1009.70 1010.02 1010.34 1010.78 1010.94 1011.22 1011.34 1011.46 1011.70 1011.90 1011.98 1012.26 1012.38 1012.38 1012.54 1012.82 1013.02 1012.70 1012.78 1013.14 1013.46 1013.82 1014.22 1014.62 1015.18 1015.22 1015.34 1015.46 1015.54 1015.62 1015.62 1015.66 1015.62 1015.70 1015.90
1006.50 1006.94 1007.38 1007.66 1007.98 1008.42 1008.78 1009.14 1009.58 1009.98 1010.26 1010.38 1010.90 1011.02 1011.22 1011.42 1011.54 1011.62 1011.66 1011.94 1012.14 1012.22 1012.46 1012.50 1012.42 1012.38 1012.66 1012.98 1013.38 1013.78 1014.54 1014.86 1014.98 1015.14 1015.22 1015.30 1015.26 1015.18 1015.18 1015.22 1015.26 1015.34
1005.98 1006.38 1006.86 1007.18 1007.50 1007.82 1008.14 1008.50 1008.82 1009.18 1009.58 1009.78 1010.34 1010.66 1010.82 1010.82 1010.98 1011.22 1011.22 1011.34 1011.62 1011.82 1011.82 1012.18 1012.10 1011.98 1012.30 1012.58 1012.94 1013.46 1013.90 1014.34 1014.58 1014.86 1014.98 1015.02 1014.90 1014.78 1014.86 1014.90 1014.82 1014.78
1005.30 1005.74 1006.14 1006.50 1006.82 1007.06 1007.42 1007.98 1008.30 1008.62 1008.90 1009.26 1009.62 1009.90 1010.14 1010.26 1010.50 1010.82 1010.94 1010.98 1010.98 1011.18 1011.30 1011.62 1011.66 1011.66 1011.94 1012.26 1012.58 1013.06 1013.58 1013.70 1014.06 1014.50 1014.86 1014.82 1014.74 1014.70 1014.58 1014.62 1014.58 1014.42
1004.58 1005.06 1005.38 1005.74 1006.06 1006.46 1006.78 1007.18 1007.54 1008.06 1008.46 1008.82 1009.10 1009.42 1009.78 1009.90 1010.10 1010.34 1010.62 1010.66 1010.58 1010.82 1010.98 1011.02 1011.26 1011.30 1011.54 1011.86 1012.22 1012.70 1013.06 1013.18 1013.50 1014.22 1014.62 1014.50 1014.38 1014.42 1014.58 1014.50 1014.38 1014.26
Wind_Speed
10 8 10 10 10 9 9 8 8 10 9 9 9 9 9 9 8 8 8 7 7 7 7 7 6 6 7 7 7 6 5 6 5 4 4 4 4 3 3 3 3 4
11 10 9 9 8 7 7 8 8 9 10 10 10 9 8 7 8 8 8 8 8 8 7 7 6 6 6 6 7 7 6 5 6 4 5 5 5 3 5 4 4 4
11 10 10 11 11 11 10 8 8 8 9 10 8 8 8 7 8 7 8 8 8 8 8 7 6 6 5 5 6 7 7 6 6 5 5 6 5 5 5 4 3 4
13 13 13 12 12 12 10 9 7 7 6 7 8 9 9 8 8 8 8 9 8 8 7 7 7 6 5 6 6 7 7 7 7 6 6 5 5 5 6 4 3 3
15 14 12 12 11 11 10 10 10 9 8 9 8 7 8 8 8 8 8 8 8 8 8 8 7 7 6 6 6 6 6 6 5 6 6 6 6 5 5 4 4 4
13 13 13 12 12 11 11 12 12 11 11 9 10 8 9 9 9 9 9 9 9 9 9 9 8 7 7 7 6 6 6 6 6 5 5 6 6 5 5 5 4 4
14 13 13 12 12 12 13 13 11 11 11 11 8 9 9 10 10 10 10 10 10 10 10 10 9 9 8 7 7 7 6 6 5 6 6 5 5 6 5 5 5 4
16 14 14 12 13 13 13 12 12 12 11 10 10 11 10 11 11 10 9 10 10 11 10 10 10 10 9 8 8 8 7 6 7 7 7 6 5 6 6 5 5 5
15 14 13 14 14 13 14 13 12 12 11 11 11 10 10 11 11 11 10 10 10 10 10 10 10 10 9 9 9 9 9 8 8 8 8 8 7 7 7 5 5 5
15 14 15 15 15 14 15 14 13 12 11 12 12 10 11 10 11 11 10 10 10 10 10 10 10 10 10 10 10 10 10 10 9 8 8 8 8 8 7 6 7 6
16 15 15 16 16 14 15 15 14 13 11 12 12 11 11 10 10 10 10 10 11 11 11 11 11 11 11 10 10 9 10 9 9 8 8 9 8 8 8 7 7 7
17 16 16 17 17 15 15 14 13 13 13 12 12 13 12 11 11 10 10 11 11 11 11 11 11 11 11 11 11 10 9 9 9 8 8 8 8 8 8 7 8 8
17 17 16 15 15 15 14 13 13 13 13 13 12 13 13 12 12 12 10 11 12 11 11 11 11 11 11 11 10 10 10 9 9 9 8 7 7 8 8 8 8 8
16 15 15 15 14 14 14 14 13 13 13 12 12 13 13 13 13 12 11 11 12 12 12 11 11 10 10 10 10 10 10 10 10 9 9 8 8 7 7 8 9 8
14 13 13 13 14 14 14 14 14 13 13 12 12 13 12 13 12 12 12 12 11 11 12 11 11 11 9 10 10 10 10 10 10 10 10 10 9 9 8 8 8 8
14 13 13 13 14 15 15 14 14 13 13 13 14 14 13 12 12 12 12 13 12 12 11 10 10 9 12 17 14 11 11 10 10 10 10 10 10 9 9 9 9 9
13 14 13 14 14 14 14 14 14 13 13 13 13 13 14 13 12 13 13 12 13 12 12 11 10 10 16 16 17 18 13 10 10 10 10 10 10 10 10 10 10 10
14 14 15 15 14 15 14 14 13 13 13 13 13 14 13 12 13 13 13 12 12 12 12 12 11 14 17 17 18 19 16 12 10 10 10 10 10 11 10 9 10 9
15 15 15 15 15 15 13 13 13 14 14 14 14 13 12 13 14 14 13 12 12 13 13 13 12 15 16 18 18 18 19 16 10 10 10 10 10 11 11 10 9 9
15 16 16 16 14 14 14 14 14 15 14 13 12 12 13 13 14 14 13 13 13 13 13 12 13 15 18 18 18 19 19 16 11 11 10 10 11 11 10 10 10 10
16 16 16 15 15 14 14 14 14 14 14 13 13 13 13 13 14 14 13 13 13 13 12 12 12 17 18 19 19 19 19 16 12 10 9 9 9 9 10 10 10 10
15 15 15 14 15 14 15 15 14 14 14 13 12 12 12 11 12 12 14 14 13 13 13 13 13 18 19 19 20 19 19 12 11 11 11 10 10 9 9 9 9 10
15 15 15 15 14 15 15 15 14 14 13 12 13 13 12 13 13 13 12 13 14 13 14 13 13 16 19 20 20 20 14 10 11 11 11 11 11 10 10 9 9 10
14 15 15 15 14 16 15 14 14 13 13 12 13 13 14 13 12 12 12 13 14 14 14 13 13 14 19 20 21 20 17 13 11 11 12 11 12 10 8 8 10 16
14 15 15 15 16 16 14 15 14 14 12 12 13 13 13 11 11 12 12 12 13 14 16 16 13 13 18 20 21 20 17 11 11 10 11 11 11 11 9 9 9 12
13 15 15 16 16 14 13 14 12 12 13 13 13 12 12 11 11 12 13 12 12 13 13 15 14 12 13 20 21 20 21 14 10 10 11 13 12 11 10 9 10 10
Wind_Direction
187 186 186 188 189 186 182 173 181 182 188 185 189 194 192 195 186 185 189 187 188 193 200 205 201 204 210 201 199 195 196 201 198 195 204 203 223 219 235 228 216 219
192 190 190 188 189 190 188 183 178 183 186 189 193 191 194 183 193 185 185 188 189 194 201 205 209 200 188 193 191 187 199 194 202 198 201 207 221 218 234 234 232 237
190 191 190 188 192 194 192 192 182 185 184 193 189 188 188 191 190 192 188 187 191 193 197 202 207 210 188 189 182 186 191 193 203 202 196 208 215 216 232 234 228 225
197 194 194 195 194 195 195 188 192 189 184 178 192 190 188 190 191 192 193 193 193 196 196 195 201 202 193 188 178 185 190 195 201 190 197 211 217 215 233 225 237 249
199 198 197 196 196 194 193 196 198 194 193 194 190 188 187 184 188 194 193 198 196 199 198 199 195 197 194 189 186 187 192 195 194 187 193 206 220 215 232 224 236 247
203 203 200 198 195 189 193 199 201 198 200 197 195 189 191 188 187 191 194 197 198 198 199 198 198 198 193 193 189 196 196 201 202 184 191 203 218 225 226 218 220 242
201 202 205 204 201 197 198 200 199 198 200 202 192 197 194 195 195 195 194 199 198 199 198 198 199 198 197 192 192 199 203 204 208 200 199 208 205 222 231 223 225 230
201 201 203 203 203 203 203 201 199 199 199 197 197 201 194 199 202 203 199 198 200 201 200 200 199 198 197 192 196 200 206 205 208 208 210 212 201 213 220 223 219 225
199 201 201 203 206 206 208 204 203 202 197 197 201 200 199 200 202 204 203 199 202 202 201 201 199 199 196 195 199 200 204 207 208 206 209 210 207 212 212 212 218 225
199 201 200 203 207 209 209 207 204 203 199 201 202 200 199 204 202 203 203 202 204 203 202 201 199 200 198 199 201 201 204 207 207 207 210 212 212 213 211 206 213 222
200 200 201 204 208 210 212 209 207 204 202 203 202 205 204 201 204 201 203 203 205 204 202 202 200 199 199 202 203 203 205 208 208 208 210 212 214 216 215 211 212 218
201 200 202 204 206 210 212 211 210 207 204 205 204 206 206 205 204 201 201 204 207 206 203 203 202 200 201 202 202 203 206 209 212 212 213 214 216 217 217 214 217 219
201 202 202 204 205 208 210 210 212 211 208 207 205 207 206 207 207 206 205 203 207 207 206 204 202 202 203 204 203 202 204 207 210 214 217 217 220 219 218 218 220 221
203 201 202 203 205 206 208 209 210 211 211 210 206 208 210 209 207 206 208 206 207 207 208 205 203 203 204 204 203 201 202 206 208 211 215 220 222 223 221 221 220 222
199 201 202 203 204 206 208 209 209 210 210 209 208 210 211 212 210 207 207 210 210 209 209 206 205 206 204 201 201 203 202 205 207 210 213 217 222 225 225 225 225 225
196 198 200 202 204 206 208 209 210 209 209 209 209 210 210 210 211 208 208 209 209 210 209 207 208 208 207 201 198 200 202 205 205 209 211 214 218 224 229 226 229 229
194 198 198 201 204 206 207 208 209 210 210 211 210 209 210 209 209 210 209 209 209 208 208 210 210 209 205 201 201 201 200 204 204 208 209 211 214 218 223 225 229 230
195 195 197 201 201 205 206 206 207 209 211 211 211 209 209 208 210 211 210 209 210 209 209 210 211 211 203 201 202 202 202 202 205 207 207 210 213 216 221 223 226 228
194 195 198 200 201 202 203 203 205 209 211 211 212 210 207 209 210 209 211 210 209 209 211 210 213 209 203 201 202 203 205 206 207 207 206 211 212 214 218 221 223 226
192 194 197 199 198 198 199 201 204 208 210 212 212 209 209 210 210 211 211 210 210 209 210 211 211 209 202 201 202 203 205 204 214 209 211 213 212 213 216 219 220 222
194 195 196 195 195 195 197 201 203 206 208 209 209 210 209 208 208 209 210 211 211 210 210 211 214 206 200 201 203 202 204 201 215 216 216 218 216 215 217 217 218 219
195 195 195 193 193 194 197 200 202 203 205 205 209 212 211 209 211 211 210 210 211 210 210 214 215 203 199 200 200 201 198 199 213 218 219 220 221 218 217 219 218 216
196 195 194 194 192 194 197 199 200 202 205 203 209 211 210 208 209 209 209 208 209 210 211 214 217 204 199 200 199 197 187 202 209 217 221 224 227 221 220 220 218 216
196 194 195 194 194 197 197 198 199 201 203 200 206 209 212 210 207 210 209 208 208 210 210 213 217 205 198 200 199 192 185 197 205 210 220 225 232 228 222 226 223 220
195 195 195 195 197 199 195 196 197 199 199 200 206 210 213 210 207 210 211 210 210 210 209 211 217 209 197 200 200 193 190 202 201 207 218 226 229 232 225 225 232 231
198 196 196 196 199 197 196 197 195 196 199 201 204 207 211 211 209 209 210 211 208 209 210 211 214 213 196 201 200 195 192 198 202 202 216 224 226 228 228 225 228 234